Cherokee, North Carolina, United States (28719)
Lat: 35.47N, Lon: 83.31W
Wx Zone: NCZ051
Local Info
Past Weather Observations for Today

NOTE: This archive is for the closest National Weather Service station to Cherokee. Information may differ from the station used for current weather conditions.

Click here for Long-term Archive

Time Weather Temperature Dewpoint Humidity Pressure Winds Precip Visibility
08:10
Clear
64°F / 18°C 59°F / 15°C 83% 30.21 in
(1023 mb)
E 3.5 mph
(E 6 kph)
-
07:50
Clear
63°F / 17°C 59°F / 15°C 88% 30.21 in
(1023 mb)
Calm - 10SM
07:30
Fair
63°F / 17°C 59°F / 15°C 88% 30.21 in
(1023 mb)
Calm -
07:10
Mostly Cloudy
61°F / 16°C 59°F / 15°C 94% 30.21 in
(1023 mb)
Calm -
06:50
Fair
61°F / 16°C 57°F / 14°C 88% 30.21 in
(1023 mb)
Calm -
06:30
Partly Cloudy
61°F / 16°C 57°F / 14°C 88% 30.18 in
(1022 mb)
Calm - 10SM
06:10
Partly Cloudy
59°F / 15°C 57°F / 14°C 94% 30.18 in
(1022 mb)
Calm - 10SM
05:50
Partly Cloudy
59°F / 15°C 57°F / 14°C 94% 30.18 in
(1022 mb)
Calm - 10SM
05:30
Mostly Cloudy
59°F / 15°C 57°F / 14°C 94% 30.18 in
(1022 mb)
Calm -
05:10
Overcast
59°F / 15°C 57°F / 14°C 94% 30.18 in
(1022 mb)
Calm -
04:50
Fair
59°F / 15°C 57°F / 14°C 94% 30.18 in
(1022 mb)
Calm -
04:30
Fair
59°F / 15°C 57°F / 14°C 94% 30.18 in
(1022 mb)
Calm -
04:10
Fair
59°F / 15°C 57°F / 14°C 94% 30.15 in
(1021 mb)
Calm -
03:50
Fair
59°F / 15°C 57°F / 14°C 94% 30.18 in
(1022 mb)
Calm -
03:30
Fair
59°F / 15°C 57°F / 14°C 94% 30.18 in
(1022 mb)
Calm -
03:10
Fair
59°F / 15°C 57°F / 14°C 94% 30.18 in
(1022 mb)
Calm -
02:50
Fair
59°F / 15°C 57°F / 14°C 94% 30.18 in
(1022 mb)
Calm -
02:30
Fair
59°F / 15°C 57°F / 14°C 94% 30.18 in
(1022 mb)
W 4.6 mph
(W 7 kph)
-
02:10
Fair
59°F / 15°C 57°F / 14°C 94% 30.18 in
(1022 mb)
Calm -
01:50
Fair
61°F / 16°C 57°F / 14°C 88% 30.18 in
(1022 mb)
Calm -
01:30
Fair
61°F / 16°C 57°F / 14°C 88% 30.18 in
(1022 mb)
Calm -
01:10
Fair
61°F / 16°C 57°F / 14°C 88% 30.18 in
(1022 mb)
Calm -
00:50
Fair
61°F / 16°C 57°F / 14°C 88% 30.18 in
(1022 mb)
Calm -
00:30
Fair
59°F / 15°C 57°F / 14°C 94% 30.18 in
(1022 mb)
Calm -
00:10
Fair
61°F / 16°C 57°F / 14°C 88% 30.18 in
(1022 mb)
Calm -
Time Weather Temperature Dewpoint Humidity Pressure Winds Precip Visibility


Weather for websites

WeatherForYou.com, LLC is not responsible for any damages or problems caused by this service. Current weather conditions are obtained from the closest station including government and personal stations which may have varying degrees of accuracy. Weather forecasts are derived from the NOAA NDFD. Like all things, this site belongs to Jesus Christ... He just trusts us to maintain it. If you have any questions or comments email webmaster@weatherforyou.com

Copyright © 2016, WeatherForYou.com LLC. All rights reserved.